Location: Central Falls
(41.8900°N, 71.3929°W)
Time: 14:41:48
(UTC+00:00)

A-11 Canister half - Visible Passes

Search period start: 03 December 2023 00:00
Search period end: 13 December 2023 00:00
Orbit: 1525 x 1684 km, 47.3° (Epoch: 02 December)

Date Brightness Start Highest point End Pass type
(mag) Time Alt. Az. Time Alt. Az. Time Alt. Az.
03 Dec 9.4 01:07:09 10° WSW 01:14:50 58° WSW 01:14:50 58° WSW visible
03 Dec 11.0 07:42:10 11° SSE 07:42:10 11° SSE 07:42:26 10° SSE visible
03 Dec 9.7 22:41:58 10° SSW 22:51:04 39° SE 22:56:15 24° E visible
04 Dec 9.1 00:45:22 10° WSW 00:54:34 76° WSW 00:54:34 76° WSW visible
04 Dec 11.1 02:51:23 10° W 02:52:52 16° W 02:52:52 16° W visible
04 Dec 9.8 22:20:24 10° SSW 22:29:22 37° SE 22:35:56 18° E visible
05 Dec 8.9 00:23:36 10° WSW 00:33:49 89° SSE 00:34:14 84° ENE visible
05 Dec 10.8 02:29:33 10° W 02:32:32 22° W 02:32:32 22° W visible
05 Dec 9.9 21:58:50 10° SSW 22:07:39 36° SE 22:15:34 13° ENE visible
06 Dec 9.0 00:01:49 10° WSW 00:12:02 86° SSE 00:13:52 66° ENE visible
06 Dec 10.4 02:07:43 10° W 02:12:10 30° WNW 02:12:10 30° WNW visible
06 Dec 10.0 21:37:18 10° S 21:45:57 34° SE 21:54:37 10° ENE visible
06 Dec 9.0 23:40:04 10° WSW 23:50:16 84° SSE 23:53:27 51° ENE visible
07 Dec 10.1 01:45:54 10° W 01:51:46 39° WNW 01:51:46 39° WNW visible
07 Dec 9.1 23:18:19 10° SW 23:28:29 82° SSE 23:33:01 39° ENE visible
08 Dec 9.7 01:24:03 10° W 01:31:19 49° WNW 01:31:19 49° WNW visible
08 Dec 9.1 22:56:34 10° SW 23:06:43 79° SSE 23:12:33 30° ENE visible
09 Dec 9.4 01:02:13 10° W 01:10:51 60° NW 01:10:51 60° NW visible
09 Dec 11.2 03:08:19 10° WNW 03:09:08 13° WNW 03:09:08 13° WNW visible
09 Dec 9.2 22:34:50 10° SW 22:44:57 77° SSE 22:52:03 23° ENE visible
10 Dec 9.2 00:40:24 10° W 00:50:21 67° NNW 00:50:21 67° NNW visible
10 Dec 10.9 02:46:31 10° WNW 02:48:38 18° WNW 02:48:38 18° WNW visible
10 Dec 9.2 22:13:05 10° SW 22:23:11 75° SSE 22:31:33 17° ENE visible
11 Dec 9.1 00:18:35 10° W 00:28:44 68° N 00:29:50 64° NNE visible
11 Dec 10.7 02:24:42 10° WNW 02:28:07 25° WNW 02:28:07 25° WNW visible
11 Dec 9.3 21:51:23 10° SW 22:01:26 72° SSE 22:11:01 12° ENE visible
11 Dec 9.2 23:56:46 10° W 00:06:55 69° N 00:09:18 55° NE visible
12 Dec 10.3 02:02:53 10° WNW 02:07:36 32° WNW 02:07:36 32° WNW visible
12 Dec 9.4 21:29:40 10° SW 21:39:40 70° SE 21:49:45 10° ENE visible
12 Dec 9.2 23:34:56 10° W 23:45:06 69° NNW 23:48:46 44° NE visible
